Regional Weather Roundup
Issued by NWS

Home | Current Version | Previous Version | Text Only | Print | Product List | Glossary On
Versions: 1 2 3 4 5 6 7 8 9 10 11 12 13 14 15 16 17 18 19 20 21 22 23 24 25 26 27
000
ASUS45 KBOU 241807
RWRCO

WEATHER ROUNDUP FOR COLORADO
NATIONAL WEATHER SERVICE DENVER/BOULDER CO
1200 PM MDT FRI OCT 24 2014

NOTE: "FAIR" INDICATES FEW OR NO CLOUDS BELOW 12000 FEET WITH NO
SIGNIFICANT WEATHER AND/OR OBSTRUCTIONS TO VISIBILITY.

COZ001>005-013-030-031-241900-
...NORTHWEST COLORADO...

CITY           SKY/WX    TMP DP  RH WIND       PRES   REMARKS
CRAIG          SUNNY     67  34  29 N5        30.32F
HAYDEN         SUNNY     61  28  29 E8        30.34S
MEEKER         SUNNY     69  33  26 S10G18    30.33F
MOUNT WERNER   NOT AVBL
STEAMBOAT SPGS SUNNY     58  35  42 CALM      30.35F
WALDEN         MOSUNNY   59  21  23 SW21G26   30.39R
$$

COZ006>008-011-241900-
...WEST CENTRAL VALLEYS...

CITY           SKY/WX    TMP DP  RH WIND       PRES   REMARKS
GRAND JUNCTION SUNNY     64  34  32 S10       30.30F
MONTROSE       SUNNY     66  36  32 N6        30.35F
EAGLE          SUNNY     54  36  50 CALM      30.40F
RIFLE          SUNNY     57  36  45 CALM      30.34F
DELTA          SUNNY     65  34  31 CALM      30.33F
NUCLA          SUNNY     63  32  31 CALM      30.40F
$$

COZ017>023-064>068-241900-
...SOUTHWEST COLORADO...

CITY           SKY/WX    TMP DP  RH WIND       PRES   REMARKS
DURANGO        SUNNY     62  31  31 S5        30.40F
CORTEZ         SUNNY     67  32  27 CALM      30.37F
PAGOSA SPRINGS SUNNY     61  31  31 CALM      30.45F
TELLURIDE      SUNNY     62  13  14 W6        30.53S
WOLF CREEK PAS SUNNY     50  18  27 SW13        N/A
$$

COZ009-010-012-014-032>034-037-058>063-241900-
...CENTRAL COLORADO...

CITY           SKY/WX    TMP DP  RH WIND       PRES   REMARKS
ASPEN          SUNNY     61  25  25 N6        30.41F
BUENA VISTA    SUNNY     65  18  16 S5        30.39F
COPPER MTN     SUNNY     48   5  17 SW12      30.64F
BERTHOUD PASS  FAIR      37  36  93 NW22G28   30.65F
COTTONWOOD PAS SUNNY     61  -6   6 W10G23    30.51S
GUNNISON       SUNNY     48  28  46 CALM      30.51F
KREMMLING      SUNNY     55  28  35 NE3         N/A
LEADVILLE      SUNNY     57  13  17 N14G21    30.50F
MONARCH PASS   SUNNY     43  16  33 W32       30.74S
SALIDA         SUNNY     64  21  18 N3        30.45S
SUNLIGHT       SUNNY     55  25  30 W3        30.60S
WILKERSON PASS NOT AVBL
$$

COZ069>075-241900-
...SAN LUIS VALLEY/SANGRE DE CRISTO MOUNTAINS...

CITY           SKY/WX    TMP DP  RH WIND       PRES   REMARKS
ALAMOSA        SUNNY     59  31  34 VRB3      30.43F
LA VETA PASS   SUNNY     55  30  38 S7        30.54S
SAGUACHE       SUNNY     59  32  36 SE9       30.44F
$$

COZ035-036-038>040-241900-
...NORTHERN COLORADO FRONT RANGE...

CITY           SKY/WX    TMP DP  RH WIND       PRES   REMARKS
DENVER INTL AP PTSUNNY   75  22  13 VRB5      30.19F
DMNS CITY PARK   N/A     76  25  14 S3G9      30.19S
AURORA         PTSUNNY   74  27  17 SW8       30.22S
FRONT RANGE AP MOSUNNY   75  25  15 W7        30.21F
ERIE MUNI ARPT CLOUDY    76  28  17 SE14      30.17S
BOULDER MUN AP CLOUDY    75  27  16 CALM      30.17S
CENTENNIAL     PTSUNNY   73  19  13 S6        30.22F
BROOMFIELD     PTSUNNY   73  23  15 S12       30.21F
FORT COLLINS   CLOUDY    72  37  28 E7        30.17F
LONGMONT       CLOUDY    73  37  27 E8        30.17F
$$

COZ041-046-047-076>085-087-088-241900-
...PIKES PEAK/PALMER DIVIDE AND SOUTHERN FOOTHILLS...

CITY           SKY/WX    TMP DP  RH WIND       PRES   REMARKS
COLO. SPRINGS  MOSUNNY   75  19  12 S10       30.26F
A. F. ACADEMY  MOSUNNY   75  13   9 S7        30.27F
ELLICOTT       NOT AVBL
FALCON         SUNNY     74  14  10 SW8       30.31S
FORT CARSON    SUNNY     77  17  10 S14       30.23F
LIMON          SUNNY     78  22  12 NW10      30.21S
MONUMENT HILL  MOSUNNY   72  19  14 S5        30.30S
TRINIDAD       SUNNY     74  32  21 NE5       30.25F
$$

COZ042>045-048>051-090-091-241900-
...NORTHEAST COLORADO...

CITY           SKY/WX    TMP DP  RH WIND       PRES   REMARKS
GREELEY ARPT   PTSUNNY   64  41  42 CALM      30.17S
AKRON          PTSUNNY   73  33  23 W15       30.16S
BURLINGTON     MOSUNNY   83  24  11 VRB5      30.13F
WRAY           PTSUNNY   85  29  13 W9        30.09F
STERLING       PTSUNNY   77  45  31 SW10      30.11S
HOLYOKE        PTSUNNY   84  30  14 NW8       30.09S
FORT MORGAN    PTSUNNY   73  35  24 SW9       30.16S
$$

COZ086-089-092>099-241900-
...SOUTHEAST COLORADO...

CITY           SKY/WX    TMP DP  RH WIND       PRES   REMARKS
PUEBLO         SUNNY     79  19  10 CALM      30.17F
LA JUNTA       SUNNY     79  32  18 W9        30.15F
LAMAR          SUNNY     78  35  21 W9        30.12F
SPRINGFIELD      N/A     82  33  17 VRB5      30.16F
$$



USA.gov is the U.S. government's official web portal to all federal, state and local government web resources and services.